This is the latest recevied weather packets stored in our database for station/object AG1T-20. If no packets are shown the sender has not sent any weather packets the latest 1 day(s).
| Time | Temp. | Humidity | Pressure | Rain* | Wind** | Luminosity | Snow |
|---|---|---|---|---|---|---|---|
| 1778008204 | 10° C | 87% | 1014.2 hPa | 2.03 mm | 0.89 m/s, 150° | 324 W/m² | - |
| 1778007604 | 9.44° C | 90% | 1014.2 hPa | 2.29 mm | 0.89 m/s, 188° | 584 W/m² | - |
| 1778007004 | 9.44° C | 95% | 1014.5 hPa | 2.79 mm | 0.45 m/s, 180° | 625 W/m² | - |
| 1778006404 | 8.33° C | 95% | 1014.5 hPa | 2.79 mm | 0.45 m/s, 254° | 199 W/m² | - |
| 1778005804 | 8.33° C | 94% | 1014.5 hPa | 2.03 mm | 0.45 m/s, 221° | 73 W/m² | - |
| 1778005204 | 7.78° C | 94% | 1014.5 hPa | 1.27 mm | 0.45 m/s, 284° | 40 W/m² | - |
| 1778004604 | 8.89° C | 94% | 1014.5 hPa | 1.02 mm | 0.89 m/s, 341° | 67 W/m² | - |
| 1778004005 | 8.89° C | 92% | 1014.5 hPa | 1.02 mm | 0.89 m/s, 318° | 67 W/m² | - |
| 1778003405 | 8.89° C | 91% | 1013.8 hPa | 0.76 mm | 0.45 m/s, 339° | 96 W/m² | - |
| 1778002805 | 9.44° C | 90% | 1013.8 hPa | 0.51 mm | 0.45 m/s, 316° | 90 W/m² | - |
| 1778002205 | 9.44° C | 88% | 1013.8 hPa | 0.51 mm | 0.89 m/s, 290° | 50 W/m² | - |
| 1778001605 | 9.44° C | 90% | 1013.8 hPa | 0.51 mm | 0.89 m/s, 257° | 126 W/m² | - |
| 1778001005 | 10° C | 91% | 1013.8 hPa | 0.76 mm | 0.89 m/s, 273° | 245 W/m² | - |
| 1778000405 | 9.44° C | 93% | 1013.8 hPa | 0.76 mm | 0.45 m/s, 212° | 273 W/m² | - |
| 1777999805 | 9.44° C | 93% | 1013.6 hPa | 1.02 mm | 0.45 m/s, 221° | 165 W/m² | - |
| 1777999205 | 9.44° C | 93% | 1013.6 hPa | 1.52 mm | 0.45 m/s, 221° | 81 W/m² | - |
| 1777998605 | 9.44° C | 93% | 1013.6 hPa | 1.52 mm | 0.45 m/s, 229° | 85 W/m² | - |
| 1777998005 | 9.44° C | 92% | 1013.6 hPa | 1.52 mm | 0.45 m/s, 224° | 127 W/m² | - |
| 1777997405 | 9.44° C | 93% | 1013.6 hPa | 1.27 mm | 0 m/s | 105 W/m² | - |
| 1777996805 | 8.89° C | 94% | 1013.6 hPa | 1.27 mm | 0 m/s | 46 W/m² | - |
| 1777996204 | 8.89° C | 93% | 1013.3 hPa | 0.76 mm | 0.45 m/s, 21° | 29 W/m² | - |
| 1777995605 | 8.89° C | 93% | 1013.3 hPa | 0.25 mm | 0.45 m/s, 48° | 17 W/m² | - |
| 1777995005 | 8.89° C | 92% | 1013.3 hPa | 0.25 mm | 0.45 m/s, 317° | 21 W/m² | - |
| 1777994405 | 8.33° C | 92% | 1013.3 hPa | 0.25 mm | 0.89 m/s, 35° | 33 W/m² | - |
| 1777993804 | 8.33° C | 91% | 1013.3 hPa | 0.51 mm | 1.34 m/s, 351° | 17 W/m² | - |
* Rain latest hour (hover to see other rain measurements)
** Current wind speed in m/s (hover to see current wind gust speed)